Location: Unspecified
(42.9300°N, 71.1866°W)
Time: 19:50:48
(UTC-04:00)

Cosmos 2058 - Visible Passes

Search period start: 27 May 2015 00:00
Search period end: 06 June 2015 00:00
Orbit: 568 x 588 km, 82.5° (Epoch: 27 May)

Date Brightness Start Highest point End Pass type
(mag) Time Alt. Az. Time Alt. Az. Time Alt. Az.
27 May 3.1 01:46:13 67° NW 01:46:13 67° NW 01:50:09 10° N visible
28 May 5.4 00:14:18 13° ENE 00:14:18 13° ENE 00:15:52 10° NE visible
28 May 3.4 01:50:36 49° WNW 01:50:36 49° WNW 01:54:30 10° N visible
29 May 5.0 00:18:39 17° ENE 00:18:39 17° ENE 00:20:59 10° NE visible
29 May 3.9 01:54:57 36° WNW 01:54:57 36° WNW 01:58:46 10° N visible
30 May 4.7 00:23:00 23° ENE 00:23:00 23° ENE 00:25:50 10° NE visible
30 May 4.3 01:59:17 27° WNW 01:59:21 27° WNW 02:02:57 10° NNW visible
31 May 4.2 00:27:20 31° ENE 00:27:20 31° ENE 00:30:31 10° NNE visible
31 May 4.7 02:03:37 21° WNW 02:03:53 21° WNW 02:07:02 10° NNW visible
01 Jun 3.8 00:31:39 41° ENE 00:31:39 41° ENE 00:35:07 10° NNE visible
01 Jun 5.0 02:07:56 16° WNW 02:08:26 16° WNW 02:10:57 10° NNW visible
02 Jun 3.3 00:35:57 56° ENE 00:35:57 56° ENE 00:39:38 10° NNE visible
02 Jun 5.3 02:12:14 11° WNW 02:13:01 12° WNW 02:14:30 10° NW visible
03 Jun 3.1 00:40:14 72° NNE 00:40:14 72° NNE 00:44:05 10° N visible
04 Jun 3.1 00:44:31 67° NW 00:44:31 67° NW 00:48:28 10° N visible
04 Jun 5.2 23:12:30 13° E 23:12:30 13° E 23:14:13 10° NE visible
05 Jun 3.5 00:48:47 50° WNW 00:48:47 50° WNW 00:52:48 10° N visible
05 Jun 4.8 23:16:45 18° E 23:16:45 18° E 23:19:18 10° NE visible
